Time,TemperatureF,DewpointF,PressureIn,WindDirection,WindDirectionDegrees,WindSpeedMPH,WindSpeedGustMPH,Humidity,HourlyPrecipIn,Conditions,Clouds,dailyrainin,SoftwareType,DateUTC
2013-01-31 00:00:00,48.2,43.6,29.29,SSW,200,5.8,7.6,84,0.08,,-RA,0.98,VWS V12.08,2013-01-31 05:00:00,
2013-01-31 00:02:00,48.1,43.5,29.29,SSW,199,8.1,10.1,84,0.04,,-RA,0.00,VWS V12.08,2013-01-31 05:02:00,
2013-01-31 00:07:00,48.1,43.5,29.29,SSW,203,7.6,8.3,84,0.04,,-RA,0.00,VWS V12.08,2013-01-31 05:07:00,
2013-01-31 00:12:00,47.9,43.3,29.29,SSW,200,6.3,8.7,84,0.04,,-RA,0.00,VWS V12.08,2013-01-31 05:12:00,
2013-01-31 00:17:00,47.9,43.0,29.29,SW,217,13.2,13.2,83,0.04,,-RA,0.00,VWS V12.08,2013-01-31 05:17:00,
2013-01-31 00:22:00,47.7,42.2,29.29,SW,231,5.8,12.3,81,0.04,,-RA,0.00,VWS V12.08,2013-01-31 05:22:00,
2013-01-31 00:27:00,47.7,41.8,29.29,SW,216,10.1,10.1,80,0.04,,-RA,0.00,VWS V12.08,2013-01-31 05:27:00,
2013-01-31 00:32:00,47.5,41.7,29.26,SW,225,6.3,8.3,80,0.04,,-RA,0.00,VWS V12.08,2013-01-31 05:32:00,
2013-01-31 00:37:00,47.5,41.7,29.26,SSW,209,5.8,6.7,80,0.04,,-RA,0.00,VWS V12.08,2013-01-31 05:37:00,
2013-01-31 00:42:00,47.3,41.8,29.26,SSW,210,8.3,8.7,81,0.04,,-RA,0.00,VWS V12.08,2013-01-31 05:42:00,
2013-01-31 00:47:00,47.3,42.1,29.29,SW,219,5.8,8.3,82,0.00,,-RA,0.00,VWS V12.08,2013-01-31 05:47:00,
2013-01-31 00:53:00,47.5,42.6,29.29,West,267,5.4,8.1,83,0.00,,-RA,0.00,VWS V12.08,2013-01-31 05:53:00,
2013-01-31 00:57:00,45.5,39.1,29.29,SW,225,10.5,10.5,78,0.00,,-RA,0.00,VWS V12.08,2013-01-31 05:57:00,
2013-01-31 01:02:00,43.7,36.3,29.32,SW,232,8.3,10.5,75,0.00,,-RA,0.00,VWS V12.08,2013-01-31 06:02:00,
2013-01-31 01:07:00,42.8,36.1,29.32,South,185,5.8,6.3,77,0.04,,-RA,0.04,VWS V12.08,2013-01-31 06:07:00,
2013-01-31 01:12:00,41.9,34.9,29.32,WSW,237,5.8,8.7,76,0.04,,-RA,0.04,VWS V12.08,2013-01-31 06:12:00,
2013-01-31 01:17:00,41.8,35.4,29.35,WSW,242,4.9,8.3,78,0.04,,-RA,0.04,VWS V12.08,2013-01-31 06:17:00,
2013-01-31 01:23:00,41.6,35.2,29.35,SW,233,6.3,7.6,78,0.04,,-RA,0.04,VWS V12.08,2013-01-31 06:23:00,
2013-01-31 01:28:00,41.4,35.1,29.35,SW,215,6.3,6.3,78,0.04,,-RA,0.04,VWS V12.08,2013-01-31 06:28:00,
2013-01-31 01:33:00,41.4,35.1,29.35,SW,225,5.4,5.8,78,0.04,,-RA,0.04,VWS V12.08,2013-01-31 06:33:00,
2013-01-31 01:37:00,41.2,35.2,29.35,SW,217,3.1,5.8,79,0.04,,-RA,0.04,VWS V12.08,2013-01-31 06:37:00,
2013-01-31 01:43:00,40.9,34.9,29.35,SSW,211,8.3,10.5,79,0.04,,-RA,0.04,VWS V12.08,2013-01-31 06:43:00,
2013-01-31 01:47:00,40.3,34.3,29.38,SSW,205,3.6,8.1,79,0.04,, +RA,0.04,VWS V12.08,2013-01-31 06:47:00,
2013-01-31 01:52:00,40.1,33.5,29.38,WNW,290,8.7,10.1,77,0.04,, +RA,0.04,VWS V12.08,2013-01-31 06:52:00,
2013-01-31 01:58:00,39.8,33.2,29.38,SW,232,8.1,15.4,77,0.04,, +RA,0.04,VWS V12.08,2013-01-31 06:58:00,
2013-01-31 02:03:00,39.6,32.7,29.38,SW,223,6.3,8.1,76,0.04,, +RA,0.04,VWS V12.08,2013-01-31 07:03:00,
2013-01-31 02:08:00,39.4,32.8,29.38,SSW,207,5.8,6.3,77,0.04,, +RA,0.04,VWS V12.08,2013-01-31 07:08:00,
2013-01-31 02:13:00,38.9,31.6,29.38,SW,232,11.0,11.0,75,0.04,, +RA,0.04,VWS V12.08,2013-01-31 07:13:00,
2013-01-31 02:18:00,38.7,31.1,29.41,WSW,238,6.7,15.4,74,0.00,, +RA,0.04,VWS V12.08,2013-01-31 07:18:00,
2013-01-31 02:23:00,38.7,31.8,29.41,WSW,253,6.3,9.6,76,0.00,, +RA,0.04,VWS V12.08,2013-01-31 07:23:00,
2013-01-31 02:28:00,38.5,31.6,29.41,SSW,200,7.6,7.6,76,0.00,, +RA,0.04,VWS V12.08,2013-01-31 07:28:00,
2013-01-31 02:33:00,38.5,31.0,29.41,West,279,4.0,4.9,74,0.00,, +RA,0.04,VWS V12.08,2013-01-31 07:33:00,
2013-01-31 02:38:00,38.2,30.6,29.41,SSW,213,10.5,10.5,74,0.00,, +RA,0.04,VWS V12.08,2013-01-31 07:38:00,
2013-01-31 02:43:00,37.8,30.3,29.41,SSW,213,5.8,8.3,74,0.00,, +RA,0.04,VWS V12.08,2013-01-31 07:43:00,
2013-01-31 02:48:00,37.4,31.2,29.44,SW,216,5.8,8.1,78,0.00,,-RA,0.04,VWS V12.08,2013-01-31 07:48:00,
2013-01-31 02:53:00,37.1,32.1,29.44,WSW,244,8.1,8.1,82,0.00,,-RA,0.04,VWS V12.08,2013-01-31 07:53:00,
2013-01-31 02:58:00,36.5,31.3,29.44,SW,229,4.0,15.0,81,0.00,,-RA,0.04,VWS V12.08,2013-01-31 07:58:00,
2013-01-31 03:03:00,36.5,31.6,29.44,SSW,192,7.6,8.1,82,0.00,,-RA,0.04,VWS V12.08,2013-01-31 08:03:00,
2013-01-31 03:08:00,36.4,30.8,29.44,WSW,252,6.3,14.5,80,0.00,,-RA,0.04,VWS V12.08,2013-01-31 08:08:00,
2013-01-31 03:13:00,36.2,30.6,29.44,SSW,198,8.7,12.3,80,0.00,,-RA,0.04,VWS V12.08,2013-01-31 08:13:00,
2013-01-31 03:18:00,36.0,30.1,29.44,SW,236,7.6,8.3,79,0.00,,-RA,0.04,VWS V12.08,2013-01-31 08:18:00,
2013-01-31 03:23:00,35.8,30.0,29.44,SW,234,5.4,8.1,79,0.00,,-RA,0.04,VWS V12.08,2013-01-31 08:23:00,
2013-01-31 03:28:00,35.5,29.0,29.44,SW,219,5.8,11.0,77,0.00,,-RA,0.04,VWS V12.08,2013-01-31 08:28:00,
2013-01-31 03:33:00,35.5,28.0,29.47,WSW,244,15.0,15.0,74,0.00,,-RA,0.04,VWS V12.08,2013-01-31 08:33:00,
2013-01-31 03:38:00,34.7,25.3,29.47,WSW,239,7.6,11.0,68,0.00,,-RA,0.04,VWS V12.08,2013-01-31 08:38:00,
2013-01-31 03:43:00,34.6,24.0,29.47,SSW,196,7.6,11.0,65,0.00,,-RA,0.04,VWS V12.08,2013-01-31 08:43:00,
2013-01-31 03:48:00,34.6,24.4,29.47,SW,225,8.7,11.0,66,0.00,,OVC055,0.04,VWS V12.08,2013-01-31 08:48:00,
2013-01-31 03:53:00,34.2,23.7,29.47,SW,226,15.0,15.0,65,0.00,,OVC055,0.04,VWS V12.08,2013-01-31 08:53:00,
2013-01-31 03:58:00,34.0,23.1,29.47,SSW,211,8.1,8.3,64,0.00,,OVC055,0.04,VWS V12.08,2013-01-31 08:58:00,
2013-01-31 04:03:00,33.8,22.6,29.47,SW,221,8.1,15.0,63,0.00,,,0.04,VWS V12.08,2013-01-31 09:03:00,
2013-01-31 04:08:00,33.8,22.2,29.47,SW,224,8.3,8.7,62,0.00,,,0.04,VWS V12.08,2013-01-31 09:08:00,
2013-01-31 04:13:00,33.8,22.2,29.47,SW,222,5.4,8.1,62,0.00,,,0.04,VWS V12.08,2013-01-31 09:13:00,
2013-01-31 04:18:00,33.8,22.2,29.49,SW,228,3.6,7.6,62,0.00,,,0.04,VWS V12.08,2013-01-31 09:18:00,
2013-01-31 04:23:00,33.7,22.0,29.49,West,275,3.6,8.1,62,0.00,,,0.04,VWS V12.08,2013-01-31 09:23:00,
2013-01-31 04:28:00,33.5,21.9,29.49,South,182,8.7,8.7,62,0.00,,,0.04,VWS V12.08,2013-01-31 09:28:00,
2013-01-31 04:33:00,33.3,20.9,29.49,SW,216,8.1,10.1,60,0.00,,,0.04,VWS V12.08,2013-01-31 09:33:00,
2013-01-31 04:38:00,33.3,20.5,29.49,SW,224,10.5,10.5,59,0.00,,,0.04,VWS V12.08,2013-01-31 09:38:00,
2013-01-31 04:43:00,33.3,20.5,29.49,West,261,8.3,8.3,59,0.00,,,0.04,VWS V12.08,2013-01-31 09:43:00,
2013-01-31 04:48:00,33.1,21.1,29.49,West,264,7.6,10.1,61,0.00,,,0.04,VWS V12.08,2013-01-31 09:48:00,
2013-01-31 04:53:00,32.9,19.8,29.49,SW,219,7.6,8.7,58,0.00,,,0.04,VWS V12.08,2013-01-31 09:53:00,
2013-01-31 04:58:00,32.8,18.4,29.49,SW,225,8.1,8.7,55,0.00,,,0.04,VWS V12.08,2013-01-31 09:58:00,
2013-01-31 05:03:00,32.8,18.8,29.49,SSW,197,9.6,11.0,56,0.00,,,0.04,VWS V12.08,2013-01-31 10:03:00,
2013-01-31 05:08:00,32.8,19.2,29.49,SSW,212,4.0,10.1,57,0.00,,,0.04,VWS V12.08,2013-01-31 10:08:00,
2013-01-31 05:13:00,32.8,19.6,29.49,SSW,213,10.5,13.2,58,0.00,,,0.04,VWS V12.08,2013-01-31 10:13:00,
2013-01-31 05:18:00,32.6,19.0,29.52,SW,215,15.0,15.0,57,0.00,,,0.04,VWS V12.08,2013-01-31 10:18:00,
2013-01-31 05:23:00,32.6,19.5,29.52,SSW,212,8.1,10.5,58,0.00,,,0.04,VWS V12.08,2013-01-31 10:23:00,
2013-01-31 05:28:00,32.6,19.9,29.52,WSW,237,8.3,8.3,59,0.00,,,0.04,VWS V12.08,2013-01-31 10:28:00,
2013-01-31 05:33:00,32.0,20.1,29.52,WSW,255,10.1,12.8,61,0.00,,,0.04,VWS V12.08,2013-01-31 10:33:00,
2013-01-31 05:38:00,31.9,21.1,29.52,SW,217,5.8,6.7,64,0.00,,,0.04,VWS V12.08,2013-01-31 10:38:00,
2013-01-31 05:43:00,31.7,21.3,29.52,SW,233,7.6,8.3,65,0.00,,,0.04,VWS V12.08,2013-01-31 10:43:00,
2013-01-31 05:48:00,31.7,20.9,29.52,West,261,10.5,11.0,64,0.00,,,0.04,VWS V12.08,2013-01-31 10:48:00,
2013-01-31 05:53:00,31.7,20.2,29.52,West,280,8.1,14.1,62,0.00,,,0.04,VWS V12.08,2013-01-31 10:53:00,
2013-01-31 05:58:00,31.5,19.6,29.52,SSW,212,7.6,11.0,61,0.00,,,0.04,VWS V12.08,2013-01-31 10:58:00,
2013-01-31 06:03:00,31.5,18.4,29.55,SSW,208,10.5,11.0,58,0.00,,,0.04,VWS V12.08,2013-01-31 11:03:00,
2013-01-31 06:08:00,31.7,18.2,29.55,SW,224,8.7,8.7,57,0.00,,,0.04,VWS V12.08,2013-01-31 11:08:00,
2013-01-31 06:13:00,31.7,17.0,29.55,SW,230,10.5,11.0,54,0.00,,,0.04,VWS V12.08,2013-01-31 11:13:00,
2013-01-31 06:18:00,31.7,17.4,29.55,SSW,213,8.1,8.1,55,0.00,,,0.04,VWS V12.08,2013-01-31 11:18:00,
2013-01-31 06:23:00,31.9,17.1,29.55,SSW,205,8.1,14.5,54,0.00,,,0.04,VWS V12.08,2013-01-31 11:23:00,
2013-01-31 06:28:00,31.7,17.0,29.55,SSW,207,12.8,12.8,54,0.00,,,0.04,VWS V12.08,2013-01-31 11:28:00,
2013-01-31 06:33:00,31.5,17.6,29.55,WSW,238,8.1,8.3,56,0.00,,,0.04,VWS V12.08,2013-01-31 11:33:00,
2013-01-31 06:38:00,31.3,19.5,29.55,SSW,193,8.7,14.5,61,0.00,,,0.04,VWS V12.08,2013-01-31 11:38:00,
2013-01-31 06:43:00,30.6,21.6,29.55,SSW,200,5.4,13.2,69,0.00,,,0.04,VWS V12.08,2013-01-31 11:43:00,
2013-01-31 06:48:00,30.2,23.3,29.58,SSW,203,10.5,11.0,75,0.00,,,0.04,VWS V12.08,2013-01-31 11:48:00,
2013-01-31 06:53:00,30.2,24.5,29.58,WSW,238,4.0,5.8,79,0.00,,,0.04,VWS V12.08,2013-01-31 11:53:00,
2013-01-31 06:58:00,30.2,24.5,29.58,SSW,192,8.7,12.3,79,0.00,,,0.04,VWS V12.08,2013-01-31 11:58:00,
2013-01-31 07:03:00,30.2,24.5,29.58,WSW,256,12.3,12.3,79,0.00,,,0.04,VWS V12.08,2013-01-31 12:03:00,
2013-01-31 07:08:00,30.1,24.4,29.58,WSW,248,10.5,10.5,79,0.00,,,0.04,VWS V12.08,2013-01-31 12:08:00,
2013-01-31 07:13:00,29.9,24.2,29.58,SW,228,6.3,7.6,79,0.00,,,0.04,VWS V12.08,2013-01-31 12:13:00,
2013-01-31 07:18:00,29.9,22.6,29.58,SW,215,4.0,7.6,74,0.00,,,0.04,VWS V12.08,2013-01-31 12:18:00,
2013-01-31 07:23:00,29.9,20.6,29.58,SW,219,5.4,6.3,68,0.00,,,0.04,VWS V12.08,2013-01-31 12:23:00,
2013-01-31 07:28:00,29.9,18.5,29.58,SW,218,4.9,5.8,62,0.00,,,0.04,VWS V12.08,2013-01-31 12:28:00,
2013-01-31 07:33:00,30.1,18.2,29.61,SW,231,5.4,12.3,61,0.00,,,0.04,VWS V12.08,2013-01-31 12:33:00,
2013-01-31 07:38:00,30.1,18.6,29.61,SW,222,6.3,8.1,62,0.00,,,0.04,VWS V12.08,2013-01-31 12:38:00,
2013-01-31 07:43:00,29.9,20.3,29.61,SW,232,8.3,11.0,67,0.00,,,0.04,VWS V12.08,2013-01-31 12:43:00,
2013-01-31 07:48:00,29.7,22.8,29.61,SSW,196,5.8,8.1,75,0.00,,,0.04,VWS V12.08,2013-01-31 12:48:00,
2013-01-31 07:53:00,29.5,23.8,29.61,SW,221,5.4,6.3,79,0.00,,,0.04,VWS V12.08,2013-01-31 12:53:00,
2013-01-31 07:58:00,29.5,25.0,29.61,SW,225,5.4,6.3,83,0.00,,,0.04,VWS V12.08,2013-01-31 12:58:00,
2013-01-31 08:03:00,29.2,24.6,29.61,SW,225,5.4,5.8,83,0.00,,,0.04,VWS V12.08,2013-01-31 13:03:00,
2013-01-31 08:08:00,29.2,24.6,29.61,SW,226,6.3,7.6,83,0.00,,,0.04,VWS V12.08,2013-01-31 13:08:00,
2013-01-31 08:13:00,29.7,25.2,29.61,WSW,257,5.8,10.1,83,0.00,,,0.04,VWS V12.08,2013-01-31 13:13:00,
2013-01-31 08:18:00,29.5,25.0,29.61,SW,222,5.4,6.3,83,0.00,,,0.04,VWS V12.08,2013-01-31 13:18:00,
2013-01-31 08:23:00,29.5,25.3,29.61,NW,321,6.3,6.3,84,0.00,,,0.04,VWS V12.08,2013-01-31 13:23:00,
2013-01-31 08:28:00,29.5,25.3,29.61,West,267,3.1,7.6,84,0.00,,,0.04,VWS V12.08,2013-01-31 13:28:00,
2013-01-31 08:33:00,29.5,24.4,29.64,SW,217,5.4,5.8,81,0.00,,,0.04,VWS V12.08,2013-01-31 13:33:00,
2013-01-31 08:38:00,29.5,22.0,29.64,SSW,207,10.5,10.5,73,0.00,,,0.04,VWS V12.08,2013-01-31 13:38:00,
2013-01-31 08:43:00,29.5,20.3,29.64,SSW,208,2.7,6.3,68,0.00,,,0.04,VWS V12.08,2013-01-31 13:43:00,
2013-01-31 08:48:00,29.7,20.5,29.64,SW,222,7.6,11.0,68,0.00,,,0.04,VWS V12.08,2013-01-31 13:48:00,
2013-01-31 08:53:00,29.5,18.9,29.64,WSW,243,3.1,5.4,64,0.00,,,0.04,VWS V12.08,2013-01-31 13:53:00,
2013-01-31 08:58:00,29.5,19.6,29.64,West,266,3.6,6.3,66,0.00,,,0.04,VWS V12.08,2013-01-31 13:58:00,
2013-01-31 09:03:00,29.2,19.6,29.64,WSW,255,7.6,7.6,67,0.00,,,0.04,VWS V12.08,2013-01-31 14:03:00,
2013-01-31 09:08:00,28.4,20.2,29.64,WSW,239,8.7,8.7,71,0.00,,,0.04,VWS V12.08,2013-01-31 14:08:00,
2013-01-31 09:13:00,28.1,20.9,29.64,SW,225,10.1,12.3,74,0.00,,,0.04,VWS V12.08,2013-01-31 14:13:00,
2013-01-31 09:18:00,28.4,22.5,29.64,West,277,8.3,8.3,78,0.00,,,0.04,VWS V12.08,2013-01-31 14:18:00,
2013-01-31 09:23:00,28.4,23.1,29.64,SSW,202,7.2,8.1,80,0.00,,,0.04,VWS V12.08,2013-01-31 14:23:00,
2013-01-31 09:28:00,28.4,22.8,29.64,WSW,249,7.6,7.6,79,0.00,,,0.04,VWS V12.08,2013-01-31 14:28:00,
2013-01-31 09:33:00,28.1,22.1,29.67,SSW,197,6.3,8.7,78,0.00,,,0.04,VWS V12.08,2013-01-31 14:33:00,
2013-01-31 09:38:00,28.1,20.9,29.67,WSW,240,8.1,9.6,74,0.00,,,0.04,VWS V12.08,2013-01-31 14:38:00,
2013-01-31 09:43:00,28.3,20.4,29.67,SSW,204,5.8,9.6,72,0.00,,,0.04,VWS V12.08,2013-01-31 14:43:00,
2013-01-31 09:48:00,28.6,19.8,29.67,SW,224,7.2,10.1,69,0.00,,,0.04,VWS V12.08,2013-01-31 14:48:00,
2013-01-31 09:53:00,28.6,19.1,29.67,WSW,237,10.5,10.5,67,0.00,,,0.04,VWS V12.08,2013-01-31 14:53:00,
2013-01-31 09:58:00,28.8,17.4,29.67,WSW,252,8.1,13.2,62,0.00,,,0.04,VWS V12.08,2013-01-31 14:58:00,
2013-01-31 10:03:00,28.6,16.9,29.67,SW,214,10.1,10.1,61,0.00,,,0.04,VWS V12.08,2013-01-31 15:03:00,
2013-01-31 10:08:00,29.0,16.5,29.67,SSW,196,10.5,11.4,59,0.00,,,0.04,VWS V12.08,2013-01-31 15:08:00,
2013-01-31 10:13:00,29.0,15.7,29.67,SW,233,6.3,10.1,57,0.00,,,0.04,VWS V12.08,2013-01-31 15:13:00,
2013-01-31 10:18:00,29.2,16.2,29.70,SW,221,11.0,11.0,58,0.00,,,0.04,VWS V12.08,2013-01-31 15:18:00,
2013-01-31 10:23:00,28.4,14.4,29.70,WSW,240,10.5,15.0,55,0.00,,,0.04,VWS V12.08,2013-01-31 15:23:00,
2013-01-31 10:28:00,28.6,15.3,29.70,WNW,295,7.6,17.4,57,0.00,,,0.04,VWS V12.08,2013-01-31 15:28:00,
2013-01-31 10:33:00,29.0,15.3,29.70,SW,223,5.8,12.3,56,0.00,,,0.04,VWS V12.08,2013-01-31 15:33:00,
2013-01-31 10:38:00,29.0,14.4,29.70,SSW,205,13.6,13.6,54,0.00,,,0.04,VWS V12.08,2013-01-31 15:38:00,
2013-01-31 10:43:00,29.7,14.7,29.70,SW,224,8.3,8.3,53,0.00,,,0.04,VWS V12.08,2013-01-31 15:43:00,
2013-01-31 10:48:00,29.5,14.9,29.70,SSW,208,6.3,12.8,54,0.00,,,0.04,VWS V12.08,2013-01-31 15:48:00,
2013-01-31 10:53:00,28.8,13.8,29.70,WNW,285,8.3,11.0,53,0.00,,,0.04,VWS V12.08,2013-01-31 15:53:00,
2013-01-31 10:58:00,29.3,14.3,29.70,SSW,195,6.3,11.0,53,0.00,,,0.04,VWS V12.08,2013-01-31 15:58:00,
2013-01-31 11:03:00,29.2,14.2,29.70,SW,215,8.1,11.0,53,0.00,,,0.04,VWS V12.08,2013-01-31 16:03:00,
2013-01-31 11:08:00,28.8,14.7,29.70,SW,228,13.2,13.2,55,0.00,,,0.04,VWS V12.08,2013-01-31 16:08:00,
2013-01-31 11:13:00,28.8,15.5,29.70,NW,304,9.2,9.2,57,0.00,,,0.04,VWS V12.08,2013-01-31 16:13:00,
2013-01-31 11:18:00,28.4,13.9,29.73,SW,219,7.6,8.7,54,0.00,,,0.04,VWS V12.08,2013-01-31 16:18:00,
2013-01-31 11:23:00,29.0,15.3,29.73,SSW,205,10.1,10.1,56,0.00,,,0.04,VWS V12.08,2013-01-31 16:23:00,
2013-01-31 11:28:00,29.3,15.2,29.73,SSW,211,5.8,6.3,55,0.00,,,0.04,VWS V12.08,2013-01-31 16:28:00,
2013-01-31 11:33:00,29.3,14.3,29.73,SSW,213,8.1,8.3,53,0.00,,,0.04,VWS V12.08,2013-01-31 16:33:00,
2013-01-31 11:38:00,29.7,14.7,29.73,SSW,207,7.6,8.3,53,0.00,,,0.04,VWS V12.08,2013-01-31 16:38:00,
2013-01-31 11:43:00,29.5,14.5,29.73,SW,223,15.4,15.4,53,0.00,,,0.04,VWS V12.08,2013-01-31 16:43:00,
2013-01-31 11:48:00,28.8,14.7,29.73,SW,221,8.7,10.5,55,0.00,,OVC055,0.04,VWS V12.08,2013-01-31 16:48:00,
2013-01-31 11:53:00,28.8,14.7,29.73,SW,219,8.3,11.0,55,0.00,,OVC055,0.04,VWS V12.08,2013-01-31 16:53:00,
2013-01-31 11:58:00,29.0,14.4,29.73,West,263,6.3,15.4,54,0.00,,OVC055,0.04,VWS V12.08,2013-01-31 16:58:00,
2013-01-31 12:03:00,28.3,14.2,29.73,SSW,211,5.8,18.3,55,0.00,,,0.04,VWS V12.08,2013-01-31 17:03:00,
2013-01-31 12:08:00,27.4,18.2,29.73,SW,222,6.3,8.7,68,0.00,,,0.04,VWS V12.08,2013-01-31 17:08:00,
2013-01-31 12:13:00,26.5,19.9,29.73,WSW,245,4.0,10.1,76,0.00,,,0.04,VWS V12.08,2013-01-31 17:13:00,
2013-01-31 12:18:00,26.8,21.5,29.73,SW,232,5.8,5.8,80,0.00,,,0.04,VWS V12.08,2013-01-31 17:18:00,
2013-01-31 12:23:00,27.4,21.7,29.73,South,185,8.1,8.1,79,0.00,,,0.04,VWS V12.08,2013-01-31 17:23:00,
2013-01-31 12:28:00,27.9,21.0,29.73,WSW,247,5.4,5.8,75,0.00,,,0.04,VWS V12.08,2013-01-31 17:28:00,
2013-01-31 12:33:00,27.7,19.2,29.73,SW,220,5.4,6.3,70,0.00,,,0.04,VWS V12.08,2013-01-31 17:33:00,
2013-01-31 12:38:00,27.7,18.2,29.73,SW,219,3.6,6.3,67,0.00,,,0.04,VWS V12.08,2013-01-31 17:38:00,
2013-01-31 12:43:00,27.0,17.9,29.73,SSW,212,6.3,8.3,68,0.00,,,0.04,VWS V12.08,2013-01-31 17:43:00,
2013-01-31 12:48:00,26.8,20.0,29.73,SSW,213,5.4,8.1,75,0.00,,OVC060,0.04,VWS V12.08,2013-01-31 17:48:00,
2013-01-31 12:53:00,25.6,18.8,29.73,SW,216,6.3,12.3,75,0.00,,OVC060,0.04,VWS V12.08,2013-01-31 17:53:00,
2013-01-31 12:58:00,25.6,19.4,29.73,WSW,252,8.3,8.3,77,0.00,,OVC060,0.04,VWS V12.08,2013-01-31 17:58:00,
2013-01-31 13:03:00,27.0,17.5,29.73,WSW,241,9.2,12.8,67,0.00,,OVC060,0.04,VWS V12.08,2013-01-31 18:03:00,
2013-01-31 13:08:00,28.6,16.9,29.73,South,182,5.8,8.1,61,0.00,,OVC060,0.04,VWS V12.08,2013-01-31 18:08:00,
2013-01-31 13:13:00,29.5,15.4,29.73,SW,219,7.6,15.0,55,0.00,,OVC060,0.04,VWS V12.08,2013-01-31 18:13:00,
2013-01-31 13:18:00,30.2,15.2,29.73,SW,234,7.6,10.1,53,0.00,,OVC060,0.04,VWS V12.08,2013-01-31 18:18:00,
2013-01-31 13:23:00,30.1,14.6,29.73,WSW,237,9.6,13.2,52,0.00,,OVC060,0.04,VWS V12.08,2013-01-31 18:23:00,
2013-01-31 13:28:00,30.1,15.0,29.73,SSW,194,8.3,8.3,53,0.00,,OVC060,0.04,VWS V12.08,2013-01-31 18:28:00,
2013-01-31 13:33:00,29.7,14.2,29.73,SW,229,6.3,8.7,52,0.00,,OVC060,0.04,VWS V12.08,2013-01-31 18:33:00,
2013-01-31 13:38:00,28.8,13.8,29.73,WSW,252,7.6,10.1,53,0.00,,OVC060,0.04,VWS V12.08,2013-01-31 18:38:00,
2013-01-31 13:43:00,27.7,16.4,29.73,SSW,192,8.3,12.8,62,0.00,,OVC060,0.04,VWS V12.08,2013-01-31 18:43:00,
2013-01-31 13:48:00,26.5,19.3,29.73,WSW,252,11.0,11.0,74,0.00,,,0.04,VWS V12.08,2013-01-31 18:48:00,
2013-01-31 13:53:00,26.8,22.1,29.73,SW,222,10.5,10.5,82,0.00,,,0.04,VWS V12.08,2013-01-31 18:53:00,
2013-01-31 13:58:00,27.9,23.7,29.73,West,260,5.4,8.3,84,0.00,,,0.04,VWS V12.08,2013-01-31 18:58:00,
2013-01-31 14:03:00,28.4,19.9,29.73,WNW,292,7.6,8.1,70,0.00,,,0.04,VWS V12.08,2013-01-31 19:03:00,
2013-01-31 14:08:00,29.3,19.0,29.73,WSW,257,5.8,12.8,65,0.00,,,0.04,VWS V12.08,2013-01-31 19:08:00,
2013-01-31 14:13:00,29.0,17.2,29.73,SW,217,6.3,8.7,61,0.00,,,0.04,VWS V12.08,2013-01-31 19:13:00,
2013-01-31 14:18:00,29.0,15.7,29.76,WSW,243,6.3,10.5,57,0.00,,,0.04,VWS V12.08,2013-01-31 19:18:00,
2013-01-31 14:23:00,28.4,13.5,29.76,SW,214,7.6,10.5,53,0.00,,,0.04,VWS V12.08,2013-01-31 19:23:00,
2013-01-31 14:28:00,29.0,13.1,29.76,SW,225,8.1,12.8,51,0.00,,,0.04,VWS V12.08,2013-01-31 19:28:00,
2013-01-31 14:33:00,28.6,12.8,29.73,SW,222,12.8,15.4,51,0.00,,,0.04,VWS V12.08,2013-01-31 19:33:00,
2013-01-31 14:38:00,29.2,12.9,29.73,SW,217,5.8,10.5,50,0.00,,,0.04,VWS V12.08,2013-01-31 19:38:00,
2013-01-31 14:43:00,29.9,12.1,29.73,SW,235,10.1,14.5,47,0.00,,,0.04,VWS V12.08,2013-01-31 19:43:00,
2013-01-31 14:48:00,29.0,12.2,29.76,SW,217,5.4,8.7,49,0.00,,,0.04,VWS V12.08,2013-01-31 19:48:00,
2013-01-31 14:53:00,27.5,13.5,29.76,SW,216,5.8,8.7,55,0.00,,,0.04,VWS V12.08,2013-01-31 19:53:00,
2013-01-31 14:58:00,25.7,11.8,29.76,SW,229,11.0,15.4,55,0.00,,,0.04,VWS V12.08,2013-01-31 19:58:00,
2013-01-31 15:03:00,26.3,11.5,29.79,SE,140,8.1,10.1,53,0.00,,,0.04,VWS V12.08,2013-01-31 20:03:00,
2013-01-31 15:08:00,26.5,8.5,29.79,SW,215,13.2,15.9,46,0.00,,,0.04,VWS V12.08,2013-01-31 20:08:00,
2013-01-31 15:13:00,27.2,9.6,29.79,SW,234,11.0,15.4,47,0.00,,,0.04,VWS V12.08,2013-01-31 20:13:00,
2013-01-31 15:18:00,27.2,7.7,29.79,SSW,199,3.6,13.2,43,0.00,,,0.04,VWS V12.08,2013-01-31 20:18:00,
2013-01-31 15:23:00,26.8,7.3,29.79,SW,221,11.0,11.4,43,0.00,,,0.04,VWS V12.08,2013-01-31 20:23:00,
2013-01-31 15:28:00,27.0,7.0,29.79,WSW,249,7.6,10.1,42,0.00,,,0.04,VWS V12.08,2013-01-31 20:28:00,
2013-01-31 15:33:00,27.2,7.7,29.79,SW,234,10.1,11.9,43,0.00,,,0.04,VWS V12.08,2013-01-31 20:33:00,
2013-01-31 15:38:00,27.0,7.0,29.79,SSW,206,6.3,8.7,42,0.00,,,0.04,VWS V12.08,2013-01-31 20:38:00,
2013-01-31 15:43:00,26.6,6.7,29.79,SW,221,8.1,12.8,42,0.00,,,0.04,VWS V12.08,2013-01-31 20:43:00,
2013-01-31 15:48:00,26.6,6.7,29.79,WSW,251,9.2,12.3,42,0.00,,,0.04,VWS V12.08,2013-01-31 20:48:00,
2013-01-31 15:53:00,27.0,7.0,29.79,SSW,208,5.8,8.1,42,0.00,,,0.04,VWS V12.08,2013-01-31 20:53:00,
2013-01-31 15:58:00,27.2,7.1,29.79,SW,223,7.6,9.6,42,0.00,,,0.04,VWS V12.08,2013-01-31 20:58:00,
2013-01-31 16:03:00,26.6,6.7,29.79,SW,225,5.4,9.6,42,0.00,,OVC055,0.04,VWS V12.08,2013-01-31 21:03:00,
2013-01-31 16:08:00,26.6,6.7,29.79,WSW,249,6.3,8.3,42,0.00,,OVC055,0.04,VWS V12.08,2013-01-31 21:08:00,
2013-01-31 16:13:00,26.8,6.8,29.79,SW,214,5.8,11.0,42,0.00,,OVC055,0.04,VWS V12.08,2013-01-31 21:13:00,
2013-01-31 16:18:00,26.6,6.7,29.82,SSW,212,8.7,8.7,42,0.00,,OVC055,0.04,VWS V12.08,2013-01-31 21:18:00,
2013-01-31 16:23:00,26.3,6.3,29.82,SSW,213,7.6,10.1,42,0.00,,OVC055,0.04,VWS V12.08,2013-01-31 21:23:00,
2013-01-31 16:28:00,26.3,6.3,29.82,SW,230,4.0,8.1,42,0.00,,OVC055,0.04,VWS V12.08,2013-01-31 21:28:00,
2013-01-31 16:33:00,26.5,6.5,29.82,SW,230,5.4,5.8,42,0.00,,OVC055,0.04,VWS V12.08,2013-01-31 21:33:00,
2013-01-31 16:38:00,26.3,6.3,29.82,SW,233,6.3,6.3,42,0.00,,OVC055,0.04,VWS V12.08,2013-01-31 21:38:00,
2013-01-31 16:43:00,26.3,6.3,29.82,SW,219,5.8,6.3,42,0.00,,OVC055,0.04,VWS V12.08,2013-01-31 21:43:00,
2013-01-31 16:48:00,26.5,6.5,29.82,NNW,327,6.3,8.3,42,0.00,,OVC046,0.04,VWS V12.08,2013-01-31 21:48:00,
2013-01-31 16:53:00,26.3,6.3,29.82,NE,38,6.3,10.5,42,0.00,,OVC046,0.04,VWS V12.08,2013-01-31 21:53:00,
2013-01-31 16:58:00,26.5,6.5,29.82,SSW,200,5.8,6.7,42,0.00,,OVC046,0.04,VWS V12.08,2013-01-31 21:58:00,
2013-01-31 17:03:00,26.5,6.5,29.82,WSW,242,4.0,4.9,42,0.00,,OVC046,0.04,VWS V12.08,2013-01-31 22:03:00,
2013-01-31 17:08:00,26.5,6.5,29.82,West,265,6.7,10.5,42,0.00,,OVC046,0.04,VWS V12.08,2013-01-31 22:08:00,
2013-01-31 17:13:00,26.1,6.2,29.82,SW,234,7.6,10.1,42,0.00,,OVC046,0.04,VWS V12.08,2013-01-31 22:13:00,
2013-01-31 17:18:00,26.1,6.2,29.82,SW,231,5.4,7.6,42,0.00,,OVC046,0.04,VWS V12.08,2013-01-31 22:18:00,
2013-01-31 17:23:00,25.7,5.8,29.82,SSW,208,3.1,5.8,42,0.00,,OVC046,0.04,VWS V12.08,2013-01-31 22:23:00,
2013-01-31 17:28:00,25.6,5.7,29.82,WSW,240,4.9,5.8,42,0.00,,OVC046,0.04,VWS V12.08,2013-01-31 22:28:00,
2013-01-31 17:33:00,25.6,5.7,29.82,WSW,245,4.9,5.8,42,0.00,,OVC046,0.04,VWS V12.08,2013-01-31 22:33:00,
2013-01-31 17:38:00,25.4,5.5,29.82,SSW,197,0.0,0.0,42,0.00,,OVC046,0.04,VWS V12.08,2013-01-31 22:38:00,
2013-01-31 17:43:00,25.4,6.0,29.82,West,276,0.0,0.0,43,0.00,,OVC046,0.04,VWS V12.08,2013-01-31 22:43:00,
2013-01-31 17:48:00,25.4,6.0,29.82,West,278,0.0,0.0,43,0.00,,OVC065,0.04,VWS V12.08,2013-01-31 22:48:00,
2013-01-31 17:53:00,25.2,5.9,29.82,SW,214,0.0,0.0,43,0.00,,OVC065,0.04,VWS V12.08,2013-01-31 22:53:00,
2013-01-31 17:58:00,25.2,6.4,29.82,SW,221,0.0,0.0,44,0.00,,OVC065,0.04,VWS V12.08,2013-01-31 22:58:00,
2013-01-31 18:03:00,25.2,6.4,29.82,SW,221,0.0,0.0,44,0.00,,OVC065,0.04,VWS V12.08,2013-01-31 23:03:00,
2013-01-31 18:08:00,25.2,5.9,29.82,SSW,193,0.0,0.0,43,0.00,,OVC065,0.04,VWS V12.08,2013-01-31 23:08:00,
2013-01-31 18:13:00,25.4,6.5,29.82,SW,220,0.0,0.0,44,0.00,,OVC065,0.04,VWS V12.08,2013-01-31 23:13:00,
2013-01-31 18:18:00,25.2,6.4,29.82,SW,224,0.0,0.0,44,0.00,,OVC065,0.04,VWS V12.08,2013-01-31 23:18:00,
2013-01-31 18:23:00,25.2,6.4,29.82,South,189,0.0,0.0,44,0.00,,OVC065,0.04,VWS V12.08,2013-01-31 23:23:00,
2013-01-31 18:28:00,25.2,6.8,29.82,SW,231,0.0,0.0,45,0.00,,OVC065,0.04,VWS V12.08,2013-01-31 23:28:00,
2013-01-31 18:33:00,25.2,7.3,29.82,WSW,238,0.0,0.0,46,0.00,,OVC065,0.04,VWS V12.08,2013-01-31 23:33:00,
2013-01-31 18:38:00,25.4,8.0,29.82,SSW,194,5.8,5.8,47,0.00,,OVC065,0.04,VWS V12.08,2013-01-31 23:38:00,
2013-01-31 18:43:00,25.2,8.7,29.82,SW,222,7.6,11.0,49,0.00,,OVC065,0.04,VWS V12.08,2013-01-31 23:43:00,
2013-01-31 18:48:00,25.0,9.0,29.82,SSW,204,8.1,8.7,50,0.00,,OVC065,0.04,VWS V12.08,2013-01-31 23:48:00,
2013-01-31 18:53:00,24.8,9.7,29.82,SW,221,5.4,8.3,52,0.00,,OVC065,0.04,VWS V12.08,2013-01-31 23:53:00,
2013-01-31 18:58:00,24.5,9.4,29.82,SSW,199,8.1,8.1,52,0.00,,OVC065,0.04,VWS V12.08,2013-01-31 23:58:00,
2013-01-31 19:03:00,24.3,9.6,29.82,SSW,212,6.3,8.1,53,0.00,,OVC065,0.04,VWS V12.08,2013-02-01 00:03:00,
2013-01-31 19:08:00,24.3,10.1,29.82,SW,230,5.8,6.3,54,0.00,,OVC065,0.04,VWS V12.08,2013-02-01 00:08:00,
2013-01-31 19:13:00,24.3,10.1,29.82,SW,229,5.4,6.3,54,0.00,,OVC065,0.04,VWS V12.08,2013-02-01 00:13:00,
2013-01-31 19:18:00,24.1,9.9,29.82,SW,222,3.6,4.0,54,0.00,,OVC065,0.04,VWS V12.08,2013-02-01 00:18:00,
2013-01-31 19:23:00,23.9,10.1,29.82,SW,230,3.6,4.0,55,0.00,,OVC065,0.04,VWS V12.08,2013-02-01 00:23:00,
2013-01-31 19:28:00,23.8,10.0,29.82,SW,235,4.0,4.0,55,0.00,,OVC065,0.04,VWS V12.08,2013-02-01 00:28:00,
2013-01-31 19:33:00,23.8,10.0,29.82,SW,227,3.1,5.4,55,0.00,,OVC065,0.04,VWS V12.08,2013-02-01 00:33:00,
2013-01-31 19:38:00,23.9,9.7,29.82,SSW,209,3.6,4.9,54,0.00,,OVC065,0.04,VWS V12.08,2013-02-01 00:38:00,
2013-01-31 19:43:00,24.1,9.9,29.82,SW,216,6.3,8.7,54,0.00,,OVC065,0.04,VWS V12.08,2013-02-01 00:43:00,
2013-01-31 19:48:00,24.3,10.5,29.82,SW,231,4.9,5.4,55,0.00,,OVC065,0.04,VWS V12.08,2013-02-01 00:48:00,
2013-01-31 19:53:00,24.1,9.9,29.82,SSW,206,5.4,7.6,54,0.00,,OVC065,0.04,VWS V12.08,2013-02-01 00:53:00,
2013-01-31 19:58:00,24.1,9.9,29.82,SW,219,5.4,8.1,54,0.00,,OVC065,0.04,VWS V12.08,2013-02-01 00:58:00,
2013-01-31 20:03:00,24.3,10.1,29.82,WSW,247,4.0,6.7,54,0.00,,OVC065,0.04,VWS V12.08,2013-02-01 01:03:00,
2013-01-31 20:08:00,24.1,9.9,29.82,SW,218,6.3,8.1,54,0.00,,OVC065,0.04,VWS V12.08,2013-02-01 01:08:00,
2013-01-31 20:13:00,24.1,9.9,29.82,SW,219,6.3,7.6,54,0.00,,OVC065,0.04,VWS V12.08,2013-02-01 01:13:00,
2013-01-31 20:18:00,23.9,9.7,29.82,SW,221,5.8,8.7,54,0.00,,OVC065,0.04,VWS V12.08,2013-02-01 01:18:00,
2013-01-31 20:23:00,23.9,10.1,29.82,SW,227,5.8,5.8,55,0.00,,OVC065,0.04,VWS V12.08,2013-02-01 01:23:00,
2013-01-31 20:28:00,23.9,10.1,29.82,SSW,212,5.4,6.3,55,0.00,,OVC065,0.04,VWS V12.08,2013-02-01 01:28:00,
2013-01-31 20:33:00,23.9,10.5,29.82,SW,219,5.4,6.3,56,0.00,,OVC065,0.04,VWS V12.08,2013-02-01 01:33:00,
2013-01-31 20:38:00,23.9,10.5,29.82,SW,218,4.0,6.3,56,0.00,,OVC065,0.04,VWS V12.08,2013-02-01 01:38:00,
2013-01-31 20:43:00,23.9,10.9,29.82,WSW,238,4.9,6.3,57,0.00,,OVC065,0.04,VWS V12.08,2013-02-01 01:43:00,
2013-01-31 20:48:00,24.1,11.1,29.82,SSW,205,4.0,5.4,57,0.00,,BKN060,0.04,VWS V12.08,2013-02-01 01:48:00,
2013-01-31 20:53:00,24.1,11.1,29.82,SW,229,4.0,4.9,57,0.00,,BKN060,0.04,VWS V12.08,2013-02-01 01:53:00,
2013-01-31 20:58:00,23.9,10.9,29.82,SW,218,5.8,5.8,57,0.00,,BKN060,0.04,VWS V12.08,2013-02-01 01:58:00,
2013-01-31 21:03:00,24.1,11.5,29.82,SW,218,4.9,5.8,58,0.00,,BKN060,0.04,VWS V12.08,2013-02-01 02:03:00,
2013-01-31 21:08:00,24.3,12.1,29.82,SW,216,5.8,6.3,59,0.00,,BKN060,0.04,VWS V12.08,2013-02-01 02:08:00,
2013-01-31 21:13:00,24.3,11.7,29.82,SW,232,4.0,4.9,58,0.00,,BKN060,0.04,VWS V12.08,2013-02-01 02:13:00,
2013-01-31 21:18:00,24.1,11.5,29.82,SSW,211,4.9,4.9,58,0.00,,BKN060,0.04,VWS V12.08,2013-02-01 02:18:00,
2013-01-31 21:23:00,24.1,11.9,29.82,SSW,203,4.9,6.3,59,0.00,,BKN060,0.04,VWS V12.08,2013-02-01 02:23:00,
2013-01-31 21:28:00,24.3,12.1,29.82,SSW,208,3.6,4.9,59,0.00,,BKN060,0.04,VWS V12.08,2013-02-01 02:28:00,
2013-01-31 21:33:00,24.5,12.6,29.82,SSW,213,4.0,4.0,60,0.00,,BKN060,0.04,VWS V12.08,2013-02-01 02:33:00,
2013-01-31 21:38:00,24.5,12.6,29.82,SW,234,4.9,6.3,60,0.00,,BKN060,0.04,VWS V12.08,2013-02-01 02:38:00,
2013-01-31 21:43:00,24.7,12.8,29.82,SW,220,4.0,4.9,60,0.00,,BKN060,0.04,VWS V12.08,2013-02-01 02:43:00,
2013-01-31 21:48:00,24.8,13.3,29.82,SW,218,4.0,5.4,61,0.00,,BKN065,0.04,VWS V12.08,2013-02-01 02:48:00,
2013-01-31 21:53:00,24.8,13.3,29.82,SSW,207,3.6,4.5,61,0.00,,BKN065,0.04,VWS V12.08,2013-02-01 02:53:00,
2013-01-31 21:58:00,24.8,14.1,29.82,SW,227,3.1,3.6,63,0.00,,BKN065,0.04,VWS V12.08,2013-02-01 02:58:00,
2013-01-31 22:03:00,24.8,14.4,29.82,SW,220,3.1,3.6,64,0.00,,BKN065,0.04,VWS V12.08,2013-02-01 03:03:00,
2013-01-31 22:08:00,24.5,14.1,29.82,SW,214,4.0,4.5,64,0.00,,BKN065,0.04,VWS V12.08,2013-02-01 03:08:00,
2013-01-31 22:13:00,24.3,13.5,29.82,WSW,244,3.1,4.5,63,0.00,,BKN065,0.04,VWS V12.08,2013-02-01 03:13:00,
2013-01-31 22:18:00,24.3,13.5,29.82,SSW,213,4.0,5.8,63,0.00,,BKN065,0.04,VWS V12.08,2013-02-01 03:18:00,
2013-01-31 22:23:00,24.3,13.9,29.82,SW,221,3.6,6.3,64,0.00,,BKN065,0.04,VWS V12.08,2013-02-01 03:23:00,
2013-01-31 22:28:00,24.5,13.7,29.82,SSW,205,4.9,5.8,63,0.00,,BKN065,0.04,VWS V12.08,2013-02-01 03:28:00,
2013-01-31 22:33:00,24.7,14.2,29.82,West,262,5.8,8.3,64,0.00,,BKN065,0.04,VWS V12.08,2013-02-01 03:33:00,
2013-01-31 22:38:00,24.8,14.4,29.82,SSW,212,6.3,6.3,64,0.00,,BKN065,0.04,VWS V12.08,2013-02-01 03:38:00,
2013-01-31 22:43:00,25.0,14.9,29.82,SW,215,4.0,6.3,65,0.00,,BKN065,0.04,VWS V12.08,2013-02-01 03:43:00,
2013-01-31 22:48:00,25.0,15.3,29.82,SW,221,2.7,4.9,66,0.00,,OVC080,0.04,VWS V12.08,2013-02-01 03:48:00,
2013-01-31 22:53:00,25.0,15.6,29.82,SSW,210,5.8,8.1,67,0.00,,OVC080,0.04,VWS V12.08,2013-02-01 03:53:00,
2013-01-31 22:58:00,25.0,16.3,29.82,SW,220,3.1,5.4,69,0.00,,OVC080,0.04,VWS V12.08,2013-02-01 03:58:00,
2013-01-31 23:03:00,25.0,17.3,29.79,SSW,208,4.0,5.4,72,0.00,,,0.04,VWS V12.08,2013-02-01 04:03:00,
2013-01-31 23:08:00,25.0,17.9,29.79,WSW,245,4.0,4.0,74,0.00,,,0.04,VWS V12.08,2013-02-01 04:08:00,
2013-01-31 23:13:00,25.0,18.5,29.79,SSW,207,0.0,0.0,76,0.00,,,0.04,VWS V12.08,2013-02-01 04:13:00,
2013-01-31 23:18:00,24.8,18.7,29.79,WSW,241,0.0,0.0,77,0.00,,,0.04,VWS V12.08,2013-02-01 04:18:00,
2013-01-31 23:23:00,24.8,19.0,29.79,SSW,208,0.0,0.0,78,0.00,,,0.04,VWS V12.08,2013-02-01 04:23:00,
2013-01-31 23:28:00,24.8,19.0,29.79,SW,221,0.0,0.0,78,0.00,,,0.04,VWS V12.08,2013-02-01 04:28:00,
2013-01-31 23:33:00,24.8,19.3,29.79,SW,216,0.0,0.0,79,0.00,,,0.04,VWS V12.08,2013-02-01 04:33:00,
2013-01-31 23:38:00,24.7,18.8,29.79,SW,220,0.0,0.0,78,0.00,,,0.04,VWS V12.08,2013-02-01 04:38:00,
2013-01-31 23:43:00,24.8,19.3,29.79,SSW,210,0.0,0.0,79,0.00,,,0.04,VWS V12.08,2013-02-01 04:43:00,
2013-01-31 23:49:00,24.8,19.3,29.79,SW,216,0.0,0.0,79,0.00,,,0.04,VWS V12.08,2013-02-01 04:49:00,
2013-01-31 23:53:00,24.8,19.3,29.79,SW,218,0.0,0.0,79,0.00,,,0.04,VWS V12.08,2013-02-01 04:53:00,
2013-01-31 23:58:00,24.8,19.3,29.79,SSW,206,0.0,0.0,79,0.00,,,0.04,VWS V12.08,2013-02-01 04:58:00,